Погода в Верещаках

Украина / Черкасская область     49°15′17″N   30°57′15″E
темп.,
°C
ветер,
м/с
пор.,
м/с
влажн.,
%
обл.,
%
осадки,
мм/ч
давл.,
гПа
погр.,
м
19 января, ср
ср1923:00−5ссз91583100 0.1 10221023
02:00−5ссз81481100 0.1 1024804
05:00−7ссз7138695 0.0 1025624
08:00−7ссз51188100 0.0 1026439
11:00−4ссз5871100 0.0 1026544
14:00−3сз476277 0.0 1024594
17:00−5зюз238571 0.0 102437
20:00−5зюз37955 0.0 1022115
20 января, чт
чт2023:00−5юз37965 0.0 1021137
02:00−6юз3896100 0.0 1019136
05:00−4юз4995100 0.0 1017220
08:00−4ююз41093100 0.0 1015216
11:00−1ююз61374100 0.0 1013459
14:000ююз6106583 0.0 1010557
17:00−3ююз4981100 0.0 1009170
20:00−2зюз41093100 0.1 1008339
21 января, пт
пт2123:00−2зюз4896100 0.8 1007285
02:00−2зюз5119686 1.0 1007432
05:00−3з7138269 0.1 1007745
08:00−5з81581100 0.1 1008825
11:00−3з9147598 0.0 10091042
14:00−3зюз9147889 0.0 10081115
17:00−4зюз8158091 0.0 1009844
20:00−3з8138199 0.1 1009898
22 января, сб
сб2223:00−4зюз8148187 0.0 1009824
02:00−5зюз81585100 0.0 1009634
05:00−5зюз71391100 0.1 1008721
08:00−4зюз61192100 0.3 1009698
11:00−3з6981100 0.1 1010846
14:00−2з5873100 0.3 10101126
17:00−5зюз368993 0.2 1012142
20:00−6юз379234 0.2 1013163
23 января, вс
вс2323:00−7зюз249749 0.0 101561
02:00−6сз119773 0.1 101642
05:00−7ссз249686 0.1 1018124
08:00−7с249786 0.3 1020123
11:00−5ссв4588100 0.1 1022427
14:00−4ссв4580100 0.1 1023730
17:00−5ссв4692100 0.1 1025409
20:00−6ссв479397 0.2 1027567